Regional Weather Roundup
Issued by NWS Kansas City/Pleasant Hill, MO

Home | Current Version | Previous Version | Graphics & Text | Print | Product List | Glossary Off
Versions: 1 2 3 4 5 6 7 8 9 10 11 12 13 14 15 16 17 18 19 20 21 22 23 24 25 26 27 28 29 30 31 32 33 34 35 36 37 38 39 40 41 42 43 44 45 46 47 48 49 50

000
ASUS43 KEAX 171304
RWREAX

WEATHER ROUNDUP FOR EASTERN KANSAS AND NORTHWEST MISSOURI
NATIONAL WEATHER SERVICE KANSAS CITY/PLEASANT HILL MO
800 AM CDT WED SEP 17 2014

KSZ040-057-103>105-MOZ028-029-037-043-171400-
...KANSAS CITY METROPOLITAN AREA...

CITY           SKY/WX    TMP DP  RH WIND       PRES   REMARKS
K.C. INTL      CLOUDY    63  61  93 SE3       29.93R
K.C. DOWNTOWN  CLOUDY    64  62  93 NE7       29.93R
LEES SUMMIT    CLOUDY    63  62  97 S3        29.94R
OLATHE - IXD   CLOUDY    66  65  96 SE3       29.94R FOG
OLATHE - OJC   CLOUDY    63  63 100 SE3       29.93R
LAWRENCE       CLOUDY    65  63  93 S3        29.93R FOG

$$

MOZ001>008-011>017-020>025-030>033-038>040-044>046-053-054-171400-
...NORTHERN AND CENTRAL MISSOURI...

CITY           SKY/WX    TMP DP  RH WIND       PRES   REMARKS
ST. JOSEPH     CLOUDY    64  59  83 SE3       29.93R
MOSBY          RAIN      61  61 100 SE5       29.93R
WHITEMAN AFB   TSTM      62  62  97 S5        29.94S
CLINTON        DRIZZLE   64  64 100 CALM      29.95R
SEDALIA        RAIN      63  61  93 SE6       29.95R FOG
WARSAW         NOT AVBL
MARSHALL       HVY RAIN  63  61  94 E9        29.95F
CHILLICOTHE      N/A     60  57  89 SE3       29.98R
KIRKSVILLE     CLOUDY    56  54  93 E5        29.99S FOG

$$

MOZ041-047>049-056>058-063>065-088>090-097-171400-
...EASTERN AND SOUTHERN MISSOURI...

CITY           SKY/WX    TMP DP  RH WIND       PRES   REMARKS
ST. LOUIS INTL MOSUNNY   58  51  78 SE7       30.02S
SPIRIT OF STL  PTSUNNY   54  52  93 CALM      30.02R
COLUMBIA       CLOUDY   N/A N/A N/A E10       29.99R HAZE
JEFFERSON CITY CLOUDY    59  56  89 E9        29.98S
ROLLA          TSTM      57  55  93 S6        30.02R FOG
LEBANON        TSTM      63  61  94 N13       30.03R
OSAGE BEACH    CLOUDY    63  59  88 E3        29.99R
SPRINGFIELD    TSTM      66  65  96 SE13      29.93R FOG
BRANSON        FOG       64  64 100 SE6       29.97F VSB 1/4
NEVADA         CLOUDY    64  64 100 CALM      29.96F
JOPLIN         MOSUNNY   71  68  90 SW15      29.94R
WEST PLAINS    CLOUDY    62  58  86 SE8       30.02S

$$

IAZ060-094-KSZ022-034>040-054-083-096-NEZ052-066-093-171400-
...KANSAS...SOUTHEAST NEBRASKA AND IOWA...

CITY           SKY/WX    TMP DP  RH WIND       PRES   REMARKS
TOPEKA         CLOUDY    65  65 100 E3        29.92R FOG
MANHATTAN      CLOUDY    69  66  90 CALM      29.90R FOG
EMPORIA        CLEAR     64  64 100 SW3       29.90R FOG
CHANUTE        MOCLDY    69  68  96 S7        29.92R FOG
WICHITA        PTCLDY    68  65  90 SW6       29.91R FOG
OMAHA          PTCLDY    59  53  80 CALM      29.93S
LINCOLN        PTCLDY    54  51  90 N3        29.94R
FALLS CITY     CLOUDY    61  60  97 E6        29.92R
LAMONI         CLOUDY    58  55  90 SE7       29.96S
DES MOINES     CLOUDY    58  51  78 SE7       29.96S

$$




USA.gov is the U.S. government's official web portal to all federal, state and local government web resources and services.